Location: Green River State Wildlife Area
(41.6390°N, 89.5080°W)
Time: 15:31:56
(UTC-06:00)

Daily predictions for brighter satellites

Satellite Brightness Start Highest point End
(mag) Time Altitude Azimuth Time Altitude Azimuth Time Altitude Azimuth
USA 267 4.4 17:51:46 10° ENE 17:57:06 28° NNE 18:02:26 10° NW
Meteor 1-27 Rocket 3.9 17:53:34 10° N 17:59:20 57° ENE 18:05:08 10° SSE
Cosmos 1782 3.4 17:55:31 10° NNW 17:59:29 65° W 18:03:25 10° S
MOS 1 4.3 17:58:21 10° SSE 18:03:56 64° ENE 18:09:33 10° N
CENTAUR R/B 4.1 18:02:21 10° ESE 18:04:22 12° ESE 18:06:25 10° E
CZ-2C R/B 3.8 18:01:38 10° N 18:06:08 80° WNW 18:10:33 10° SSW
ERS-2 3.3 18:03:15 10° ESE 18:06:10 23° ENE 18:09:06 10° NNE
EO 1 Del DPAF 3.8 18:03:35 10° NNE 18:07:09 36° E 18:10:41 10° SSE
COSMO-SKYMED 1 2.6 18:03:22 10° NNE 18:07:44 83° ESE 18:12:04 10° S
MTI 3.8 18:04:47 10° NNE 18:07:55 54° E 18:11:03 10° S
CZ-4 R/B 2.6 18:04:12 10° S 18:08:11 48° W 18:12:06 10° NNW
Cosmos 1725 Rocket 4.0 18:04:08 10° N 18:10:30 81° E 18:16:46 10° S
Cosmos 1624 Rocket 4.3 18:05:31 10° N 18:10:34 46° ENE 18:15:33 10° SE
Cosmos 1980 4.1 18:05:45 10° NNW 18:11:09 42° ENE 18:16:30 10° SE
Cosmos 1680 Rocket 3.8 18:05:56 10° SSW 18:11:14 75° WNW 18:16:35 10° NNE
Cosmos 1862 3.4 18:13:55 10° S 18:17:54 85° W 18:21:54 10° N
FALCON 9 R/B 4.1 18:12:24 10° WSW 18:18:39 58° SSE 18:39:29 13° E
SJ-6B 4.0 18:18:09 10° ESE 18:20:55 20° ENE 18:23:43 10° NNE
Cosmos 2123 Rocket 4.2 18:16:40 10° SSW 18:22:51 77° W 18:29:03 10° N
NOSS 3-2 (A) 3.5 18:17:49 10° SSW 18:23:35 61° ESE 18:29:56 10° NE
Iridium 2 3.9 18:19:56 10° N 18:23:46 78° W 18:27:35 10° S
MOS 1-B Rocket 4.2 18:18:55 10° SSE 18:25:39 86° WSW 18:31:34 10° NNW
Thor Agena Rocket 4.5 18:22:59 10° NE 18:27:10 25° E 18:31:16 10° SSE
ATLAS 3B R/B 3.0 18:20:31 10° SW 18:27:48 79° NW 18:34:49 10° NNE
Landsat 4 3.6 18:25:27 10° NNE 18:29:11 90° NNW 18:32:56 10° SSW
Cosmos 1633 3.9 18:29:11 10° SE 18:31:38 18° E 18:31:45 18° E
DELTA 2 R/B (2) 4.2 18:31:50 10° WSW 18:33:25 28° S 18:34:04 22° SE
USA 238 DEB 4.1 18:30:43 10° SW 18:37:33 67° NW 18:44:31 10° NNE
USA 238 4.1 18:30:48 10° SW 18:37:39 68° NW 18:44:38 10° NNE
Cosmos 1674 Rocket 3.9 18:34:25 10° N 18:38:32 39° ENE 18:42:35 10° SSE
MINOTAUR IV R/B 4.5 18:34:33 10° SSW 18:39:01 73° ESE 18:43:30 10° NNE
CZ-3 Stage 3 3.9 18:36:16 10° WSW 18:40:29 20° SSW 18:42:51 10° SE
Shenzhou-11 Module 2.2 18:38:08 10° W 18:41:06 63° SSW 18:42:47 23° ESE
Cosmos 1908 Rocket 4.5 18:39:56 10° SSE 18:43:41 27° E 18:47:28 10° NNE
Tiangong 2 1.1 18:40:37 10° W 18:43:48 71° N 18:45:13 30° E
Resurs 01 Rocket 2.9 18:46:34 20° ENE 18:46:34 20° ENE 18:49:39 10° NNE
Cosmos 2219 Rocket 2.9 18:41:32 10° NNW 18:47:06 57° WSW 18:52:36 10° S
Envisat 3.5 18:43:35 10° SE 18:48:11 36° ENE 18:52:48 10° N
Cosmos 2219 4.2 18:44:57 10° SW 18:50:19 47° WNW 18:55:46 10° NNE
FREGAT/IRIS 2.4 18:48:34 10° SSE 18:51:31 78° ENE 18:54:29 10° N
Lacrosse 5 1.8 18:48:03 10° NW 18:53:09 79° NE 18:56:56 18° SE
Cosmos 1733 Rocket 2.9 18:49:54 10° S 18:54:14 86° E 18:58:34 10° N
Cosmos 2227 Rocket 2.1 18:50:22 10° SSW 18:56:01 80° ESE 19:01:41 10° NNE
Cosmos 2237 Rocket 2.1 18:51:07 10° NNW 18:56:47 87° ENE 19:02:24 10° SSE
SL-16 R/B 2.7 18:52:16 10° N 18:57:32 38° ENE 19:00:05 25° ESE
H-2A R/B 3.3 18:54:20 10° S 18:58:13 62° W 19:02:06 10° NNW
NOSS 0 Rocket 4.3 18:53:40 10° NNW 18:59:48 66° WSW 19:05:56 10° SSE
Meteor 1-20 Rocket 4.4 18:55:11 10° SSE 19:00:34 47° E 19:06:05 10° NNE
HJ-1C 3.3 18:57:34 10° SSE 19:00:57 69° ENE 19:04:22 10° N
USA 215 3.3 19:00:22 13° NE 19:06:20 85° NW 19:12:52 10° SW
CZ-2D R/B 3.3 19:03:43 17° SSE 19:06:31 57° ENE 19:10:22 10° N
SeaSat 1 2.3 19:03:53 10° SSE 19:08:49 84° ENE 19:13:46 10° NNW
Cosmos 1939 Rocket 4.5 19:12:02 21° NNE 19:12:02 21° NNE 19:13:51 10° N
Cosmos 2297 Rocket 2.1 19:05:01 10° SSW 19:10:41 89° E 19:16:24 10° NNE
NOSS 3-2 (C) 3.4 19:08:13 10° SW 19:14:09 84° NW 19:20:33 11° NE
DNEPR-1 R/B 3.6 19:10:53 10° SW 19:15:05 72° NW 19:17:43 22° NNE
ARGOS Delta rocket 3.8 19:11:14 10° NNE 19:16:11 60° E 19:20:50 10° S
Meteor 1-25 Rocket 4.0 19:12:23 10° S 19:17:53 73° E 19:23:26 10° NNE
Abrixas rocket 4.2 19:16:27 10° W 19:19:01 22° SW 19:20:11 18° S
CZ-3C R/B 4.3 19:16:31 10° SSE 19:19:09 12° SE 19:19:09 12° SE
Cosmos 1812 2.9 19:15:52 10° NNW 19:19:44 71° W 19:23:34 10° S
Okean 3 3.3 19:15:38 10° N 19:19:50 88° W 19:24:00 10° S
Cosmos 1464 Rocket 3.8 19:16:38 10° N 19:22:48 80° E 19:28:55 10° S
Sich 1 Rocket 3.6 19:19:15 10° S 19:23:41 57° E 19:23:57 56° ENE
Cosmos 2333 Rocket 4.0 19:19:47 10° NW 19:24:45 32° WSW 19:29:41 10° SSW
Cosmos 44 3.4 19:23:53 10° NNW 19:28:51 59° NE 19:29:27 55° E
Cosmos 1452 Rocket 3.4 19:24:07 10° NNW 19:29:25 85° ENE 19:32:15 28° SSE
Cosmos 2082 4.0 19:29:49 10° SW 19:35:23 65° WNW 19:41:00 10° NNE
Spot 2 Rocket 3.7 19:39:20 50° NE 19:39:20 50° NE 19:43:32 10° N
USA 267 3.3 19:37:32 45° E 19:39:18 60° NE 19:45:43 10° NW
Cosmos 1048 Rocket 4.2 19:34:25 10° S 19:38:51 53° SE 19:38:51 53° SE
Cosmos 1378 Rocket 3.7 19:35:16 10° NNW 19:39:40 74° W 19:41:36 33° S
Geosat 4.0 19:39:29 26° NNE 19:42:24 81° WNW 19:47:26 10° SSW
CENTAUR R/B 2.3 19:47:37 10° SSW 19:53:35 80° ESE 19:55:00 57° NE
Cosmos 1420 Rocket 4.1 19:48:42 10° NNW 19:53:58 73° WSW 19:55:08 53° S
Cosmos 2034 Rocket 4.1 19:49:00 10° N 19:55:24 79° W 20:01:45 10° S
CZ-4C R/B 4.1 19:51:23 10° NNW 19:56:28 24° NNE 19:56:28 24° NNE
SL-8 R/B 4.3 19:52:46 10° SW 19:56:20 50° SW 19:56:20 50° SW
Cosmos 1816 Rocket 4.5 20:09:32 10° S 20:15:55 82° W 20:22:19 10° N
Cosmos 44 Rocket 4.4 20:16:47 10° NW 20:20:18 43° WNW 20:20:18 43° WNW
Resurs 01 Rocket 3.4 20:24:08 29° NW 20:24:08 29° NW 20:26:48 10° NNW
Lacrosse 5 4.2 20:32:19 10° W 20:35:32 17° WSW 20:36:12 17° SW
SL-16 R/B 3.7 20:36:35 10° NW 20:41:30 31° WSW 20:42:02 31° WSW
USA 215 4.4 20:47:43 32° N 20:48:49 34° NNW 20:54:32 10° W
